(133041) = 2003 BU38 = 2004 GY12

Discovered at Socorro on 2003-01-27 by LINEAR.

Orbit

Orbit type: Main Belt

Note: WebGL enabled browser required.

epoch2024-03-31.0
epoch JD2460400.5
perihelion date2020-07-24.38583
perihelion JD2459054.88583
argument of perihelion (°)99.39849
ascending node (°)137.80167
inclination (°)9.75087
eccentricity0.0887699
perihelion distance (AU)2.7745265
Tisserand w.r.t. Jupiter3.2
ΔV w.r.t. Earth (km/sec)10.8
semimajor axis (AU)3.0448144
mean anomaly (°)249.62218
mean daily motion (°/day)0.18550800
aphelion distance (AU)3.315
period (years)5.31
P-vector [x]-0.53213254
P-vector [y]-0.82798369
P-vector [z]-0.17685581
Q-vector [x]0.83898343
Q-vector [y]-0.48760759
Q-vector [z]-0.24154843
absolute magnitude15.16
phase slope0.15
uncertainty0
referenceMPEC 2024-E133
observations used859
oppositions20
arc length (days)9479
first opposition used1998
last opposition used2024
residual rms (arc-secs)0.74
perturbers coarse indicatorM-v
perturbers precise indicator003Ek
first observation date used1998-01-28.0
last observation date used2024-01-11.0
computer nameMPCLINUX
JD of orbit computation2456937.519759
perihelion JD uncertainty (days)2.6368E-04
argument of perihelion uncertainty (°)5.8043E-05
ascending node uncertainty (°)3.3373E-05
inclination uncertainty (°)6.9554E-06
eccentricity uncertainty 5.5345E-08
perihelion distance uncertainty (AU)1.8093E-07
Minimum Orbit Intersection Distances (in AU)
for orbit epoch: 2460400.5, reference: E2024-ED3
Mercury2.323
Venus2.06066
Earth1.78411
Mars1.23263
Jupiter1.77241
Saturn5.79493
Uranus15.4448
Neptune26.5585

Observations

876 total observations over interval: 1998 01 28.32870 – 2024 01 11.293300
These data are available for download (format description).

Date (UT) J2000 RA J2000 Dec Magn Location Ref
1998 01 28.32870 10 39 30.25 +10 58 29.9 20.1 V 691 – Steward Observatory, Kitt Peak-Spacewatch MPS 106738
1998 01 28.34998 10 39 29.61 +10 58 37.7 19.8 V 691 – Steward Observatory, Kitt Peak-Spacewatch MPS 106738
1998 01 28.37163 10 39 28.95 +10 58 45.9 19.7 V 691 – Steward Observatory, Kitt Peak-Spacewatch MPS 106738
1999 06 08.36650 16 51 07.85 -08 39 46.5 19.6   704 – Lincoln Laboratory ETS, New Mexico MPS 106739
1999 06 08.37592 16 51 07.34 -08 39 46.4 19.5   704 – Lincoln Laboratory ETS, New Mexico MPS 106739
1999 06 08.38523 16 51 06.94 -08 39 47.3 19.9   704 – Lincoln Laboratory ETS, New Mexico MPS 106739
1999 06 08.39453 16 51 06.41 -08 39 49.4 20.0   704 – Lincoln Laboratory ETS, New Mexico MPS 106739
2001 11 15.31028 03 45 52.14 +05 46 03.1 19.7   704 – Lincoln Laboratory ETS, New Mexico MPS 173884
2001 11 15.32501 03 45 51.39 +05 46 00.5 19.6   704 – Lincoln Laboratory ETS, New Mexico MPS 173884
2001 11 15.35446 03 45 49.90 +05 45 55.5 19.5   704 – Lincoln Laboratory ETS, New Mexico MPS 173884
2001 11 20.29705 03 41 50.90 +05 33 48.6 19.4 R 699 – Lowell Observatory-LONEOS MPS 173884
2001 11 20.31355 03 41 50.10 +05 33 44.7   699 – Lowell Observatory-LONEOS MPS 173884
2001 11 20.33009 03 41 49.37 +05 33 44.5   699 – Lowell Observatory-LONEOS MPS 173884
2001 11 20.34664 03 41 48.56 +05 33 40.6   699 – Lowell Observatory-LONEOS MPS 173884
2003 01 08.32502 08 48 46.72 +14 03 07.3 19.6   704 – Lincoln Laboratory ETS, New Mexico MPS 73349
2003 01 08.35447 08 48 45.64 +14 03 15.1 19.9   704 – Lincoln Laboratory ETS, New Mexico MPS 73349
2003 01 08.36918 08 48 44.97 +14 03 20.6 19.7   704 – Lincoln Laboratory ETS, New Mexico MPS 73349
2003 01 08.38382 08 48 44.37 +14 03 23.5 19.8   704 – Lincoln Laboratory ETS, New Mexico MPS 73349
2003 01 27.27465 08 34 24.45 +15 43 07.4 20.4   704 – Lincoln Laboratory ETS, New Mexico MPS 71929
2003 01 27.28998 08 34 23.61 +15 43 12.9 19.7   704 – Lincoln Laboratory ETS, New Mexico MPS 71929
2003 01 27.30549 08 34 22.82 +15 43 18.3 19.6   704 – Lincoln Laboratory ETS, New Mexico MPS 71929
2003 01 30.23345 08 31 58.36 +16 00 07.4 18.8   644 – Palomar Mountain/NEAT MPS 71929
2003 01 30.23798 08 31 58.08 +16 00 08.7 19.1 R 699 – Lowell Observatory-LONEOS MPS 71929
2003 01 30.25576 08 31 57.24 +16 00 15.2   699 – Lowell Observatory-LONEOS MPS 71929
2003 01 30.27366 08 31 56.23 +16 00 20.5   699 – Lowell Observatory-LONEOS MPS 71929
2003 01 30.29172 08 31 55.41 +16 00 27.4   699 – Lowell Observatory-LONEOS MPS 71929
2003 01 30.30772 08 31 54.60 +16 00 33.1 19.0   644 – Palomar Mountain/NEAT MPS 71929
2003 01 30.37554 08 31 51.14 +16 00 56.4 19.4   644 – Palomar Mountain/NEAT MPS 71929
2003 02 02.28373 08 29 28.69 +16 17 40.4 20.2   608 – Haleakala-AMOS MPS 71929
2003 02 02.29416 08 29 28.14 +16 17 43.8 20.8   608 – Haleakala-AMOS MPS 71929
2003 02 02.30501 08 29 27.62 +16 17 47.8 20.5   608 – Haleakala-AMOS MPS 71929
2003 02 03.22328 08 28 42.92 +16 23 03.5 19.4 C 704 – Lincoln Laboratory ETS, New Mexico MPS 294184
2003 02 03.23880 08 28 42.03 +16 23 09.3 19.2 C 704 – Lincoln Laboratory ETS, New Mexico MPS 294184
2003 02 03.26988 08 28 40.50 +16 23 19.3 19.6 C 704 – Lincoln Laboratory ETS, New Mexico MPS 294184
2004 04 11.40852 14 58 15.47 -01 55 20.8 19.6   644 – Palomar Mountain/NEAT MPS 104435
2004 04 11.42903 14 58 14.72 -01 55 13.6 19.6   644 – Palomar Mountain/NEAT MPS 104435
2004 04 11.45426 14 58 13.84 -01 55 05.0 19.0   644 – Palomar Mountain/NEAT MPS 104435
2004 04 14.39896 14 56 29.73 -01 38 04.5 19.0 R 699 – Lowell Observatory-LONEOS MPS 104435
2004 04 14.40910 14 56 29.29 -01 38 00.3   699 – Lowell Observatory-LONEOS MPS 104435
2004 04 14.41918 14 56 28.97 -01 37 57.6   699 – Lowell Observatory-LONEOS MPS 104435
2004 04 14.42932 14 56 28.51 -01 37 53.0   699 – Lowell Observatory-LONEOS MPS 104435
2004 04 16.29536 14 55 18.47 -01 27 18.8 18.8   704 – Lincoln Laboratory ETS, New Mexico MPS 104435
2004 04 16.30616 14 55 18.01 -01 27 15.9 19.2   704 – Lincoln Laboratory ETS, New Mexico MPS 104435
2004 04 16.31700 14 55 17.58 -01 27 11.7 19.7   704 – Lincoln Laboratory ETS, New Mexico MPS 104435
2004 04 16.32781 14 55 17.17 -01 27 07.9 19.3   704 – Lincoln Laboratory ETS, New Mexico MPS 104435
2004 04 16.33880 14 55 16.72 -01 27 04.3 19.3   704 – Lincoln Laboratory ETS, New Mexico MPS 104435
2004 04 26.22415 14 48 22.86 -00 35 14.9 18.6 R 699 – Lowell Observatory-LONEOS MPS 106301
2004 04 26.23921 14 48 22.14 -00 35 11.3   699 – Lowell Observatory-LONEOS MPS 106301
2004 04 26.25432 14 48 21.41 -00 35 07.1   699 – Lowell Observatory-LONEOS MPS 106301
2004 04 26.26939 14 48 20.86 -00 35 02.8   699 – Lowell Observatory-LONEOS MPS 106301
2004 05 10.37991 14 37 45.19 +00 18 46.7 20.5   608 – Haleakala-AMOS MPS 106739
2004 05 10.39012 14 37 44.71 +00 18 48.8 20.1   608 – Haleakala-AMOS MPS 106739
2004 05 10.40070 14 37 44.23 +00 18 50.1 20.0   608 – Haleakala-AMOS MPS 106739
2004 05 14.25073 14 34 58.45 +00 28 04.2 18.8   704 – Lincoln Laboratory ETS, New Mexico MPS 107393
2004 05 14.26022 14 34 57.96 +00 28 05.9 18.5   704 – Lincoln Laboratory ETS, New Mexico MPS 107393
2004 05 14.26972 14 34 57.62 +00 28 06.8 18.9   704 – Lincoln Laboratory ETS, New Mexico MPS 107393
2004 05 14.27920 14 34 57.19 +00 28 06.6 18.8   704 – Lincoln Laboratory ETS, New Mexico MPS 107393
2004 05 14.28865 14 34 56.84 +00 28 09.1 19.2   704 – Lincoln Laboratory ETS, New Mexico MPS 107393
2004 05 15.24660 14 34 16.89 +00 30 02.7 18.8   704 – Lincoln Laboratory ETS, New Mexico MPS 107393
2004 05 15.25617 14 34 16.48 +00 30 04.8 19.0   704 – Lincoln Laboratory ETS, New Mexico MPS 107393
2004 05 15.26567 14 34 16.02 +00 30 05.9 19.1   704 – Lincoln Laboratory ETS, New Mexico MPS 107393
2004 05 15.27518 14 34 15.62 +00 30 06.7 19.2   704 – Lincoln Laboratory ETS, New Mexico MPS 107393
2004 05 15.28471 14 34 15.23 +00 30 07.8 19.5   704 – Lincoln Laboratory ETS, New Mexico MPS 107393
2004 05 16.25778 14 33 35.25 +00 31 52.1 18.5   704 – Lincoln Laboratory ETS, New Mexico MPS 107393
2004 05 16.26736 14 33 34.83 +00 31 53.2 19.0   704 – Lincoln Laboratory ETS, New Mexico MPS 107393
2004 05 16.27709 14 33 34.40 +00 31 53.9 19.2   704 – Lincoln Laboratory ETS, New Mexico MPS 107393
2004 05 16.28681 14 33 34.01 +00 31 55.3 19.1   704 – Lincoln Laboratory ETS, New Mexico MPS 107393
2004 05 16.29641 14 33 33.61 +00 31 56.3 19.0   704 – Lincoln Laboratory ETS, New Mexico MPS 107393
2004 05 23.28644 14 29 07.33 +00 39 18.6 19.5   704 – Lincoln Laboratory ETS, New Mexico MPS 108109
2004 05 23.29510 14 29 07.10 +00 39 19.0 19.7   704 – Lincoln Laboratory ETS, New Mexico MPS 108109
2004 05 23.30383 14 29 06.74 +00 39 18.3 19.7   704 – Lincoln Laboratory ETS, New Mexico MPS 108109
2004 05 23.31401 14 29 06.40 +00 39 18.8 19.4   704 – Lincoln Laboratory ETS, New Mexico MPS 108109
2004 05 23.32477 14 29 05.98 +00 39 18.7 19.4   704 – Lincoln Laboratory ETS, New Mexico MPS 108109
2005 07 01.42287 21 40 53.06 -11 43 55.2 20.0 V 691 – Steward Observatory, Kitt Peak-Spacewatch MPS 136996
2005 07 01.43783 21 40 52.84 -11 43 58.3 20.2 V 691 – Steward Observatory, Kitt Peak-Spacewatch MPS 136996
2005 07 01.45273 21 40 52.58 -11 44 01.3 20.3 V 691 – Steward Observatory, Kitt Peak-Spacewatch MPS 136996
2005 07 06.37534 21 39 28.45 -12 02 41.7 20.4 V 691 – Steward Observatory, Kitt Peak-Spacewatch MPS 137446
2005 07 06.39299 21 39 28.07 -12 02 46.0 20.0 V 691 – Steward Observatory, Kitt Peak-Spacewatch MPS 137446
2005 07 06.41055 21 39 27.70 -12 02 50.4 19.7 V 691 – Steward Observatory, Kitt Peak-Spacewatch MPS 137446
2005 07 09.40572 21 38 21.62 -12 15 46.6 20.1 V 691 – Steward Observatory, Kitt Peak-Spacewatch MPS 137958
2005 07 09.42313 21 38 21.21 -12 15 51.3 19.8 V 691 – Steward Observatory, Kitt Peak-Spacewatch MPS 137958
2005 07 09.44071 21 38 20.77 -12 15 56.0 19.7 V 691 – Steward Observatory, Kitt Peak-Spacewatch MPS 137958
2005 07 18.39526 21 34 02.66 -13 00 58.0 19.5   644 – Palomar Mountain/NEAT MPS 138315
2005 07 18.41928 21 34 01.82 -13 01 06.2 19.0   644 – Palomar Mountain/NEAT MPS 138315
2005 07 18.44708 21 34 00.84 -13 01 15.5 19.3   644 – Palomar Mountain/NEAT MPS 138315
